SCP
0 0 0 0 0 0 -0 0 0 0 0 0 0 0 0 0 0 0 0 0 0 1 1 0 1 0 1 1 1 1 1 1 2 0 0 1 0 1 0 0 0 0 0 0 -0 -0 -0 -0 -0
0 0 0 0 0 0 0 0 0 0 0 0 0 0 0 -0 0 0 0 0 1 1 1 1 1 1 1 1 1 1 1 1 1 1 1 0 0 1 0 0 0 0 0 -0 -0 -0 -0 0 0
-0 -0 -0 0 0 0 0 0 0 0 0 0 0 0 0 0 0 0 1 0 1 1 1 1 1 2 1 1 1 1 1 1 1 1 1 0 1 0 0 1 0 0 0 0 0 0 0 0 -0
0 0 0 0 0 0 0 0 0 0 0 0 0 0 0 0 0 0 1 0 1 1 1 1 1 1 2 2 1 0 0 1 1 1 1 0 0 1 1 1 0 0 0 0 0 0 0 0 0
-0 -0 0 0 0 0 0 0 0 0 0 0 0 -0 0 0 0 0 1 0 1 1 1 2 1 1 1 2 0 1 0 0 0 1 0 0 1 1 1 1 0 0 0 0 0 0 0 0 0
0 0 0 0 0 0 0 0 0 0 0 0 0 0 0 0 0 0 1 1 1 1 1 1 1 1 1 0 0 0 0 0 0 1 0 0 1 1 1 1 0 0 0 0 0 0 0 0 0
-0 -0 0 -0 0 0 0 0 0 0 0 0 0 0 0 0 0 0 0 1 1 1 1 1 1 1 0 0 0 0 0 0 0 -0 1 0 0 0 0 0 0 0 0 0 0 0 0 0 0
0 -0 -0 -0 0 0 0 0 0 0 0 0 0 0 0 0 0 0 0 0 0 1 1 1 1 0 0 0 0 0 0 -0 0 0 0 0 0 0 0 0 0 0 0 0 0 0 0 0 0
0 0 0 -0 0 0 0 0 0 0 0 0 0 0 0 0 0 0 0 0 0 0 0 0 0 0 0 0 0 0 0 0 0 0 0 0 0 0 0 0 0 0 0 0 0 0 0 0 0
0 0 -0 0 0 0 0 0 -0 0 0 0 0 0 0 0 0 0 0 0 0 0 0 0 0 0 0 0 0 0 0 0 0 0 0 0 0 0 0 0 0 0 0 0 0 0 0 0 0
0 0 -0 0 0 0 0 0 0 0 0 -0 0 0 0 0 0 0 0 0 0 0 0 0 0 0 0 0 0 0 0 1 1 0 0 0 0 0 0 0 0 0 0 0 0 0 0 0 0
0 -0 -0 0 0 0 0 -0 -0 0 -0 0 0 0 0 0 0 0 0 0 0 0 0 0 0 0 0 0 0 0 0 0 0 0 0 0 0 0 0 0 0 0 0 0 0 0 0 0 0
0 0 -0 0 0 0 0 -0 -0 -0 -0 0 0 0 0 0 0 0 0 0 0 0 0 0 0 0 0 0 0 0 0 0 0 0 0 0 0 0 0 0 0 0 0 0 0 0 0 0 0
0 0 0 0 0 0 -0 0 -0 0 0 0 0 0 0 0 0 0 0 0 0 0 0 0 0 0 0 0 0 0 0 0 0 0 0 0 0 0 0 0 0 0 0 0 0 0 0 0 0
0 0 0 0 0 0 0 0 0 0 0 0 0 0 0 0 0 0 0 0 0 0 0 0 0 0 0 0 0 0 0 0 0 0 0 0 0 0 0 0 0 0 0 0 0 0 0 0 0
0 0 0 0 0 0 0 -0 -0 0 0 0 0 0 0 0 0 0 0 0 0 0 0 0 0 0 0 0 0 0 0 0 0 0 0 0 0 0 0 0 0 0 0 0 0 0 0 0 0
0 0 0 0 0 0 0 -0 0 0 0 0 0 0 0 0 0 -0 0 0 0 0 0 0 0 0 0 0 0 0 0 0 0 0 0 0 0 0 0 0 0 0 0 0 0 0 0 0 0
0 0 0 0 0 0 0 0 0 0 0 0 0 0 0 0 0 -0 -0 0 0 0 0 0 0 0 0 0 0 0 0 0 0 0 0 0 0 0 0 0 0 0 0 0 0 0 0 0 0
0 0 0 0 0 0 0 -0 0 0 0 0 0 0 0 0 0 -0 -0 0 0 0 0 0 0 0 0 0 0 0 0 0 0 0 0 -0 0 0 0 0 0 0 0 0 0 0 0 0 0
0 0 0 0 0 0 0 -0 -0 0 0 0 0 0 0 0 0 -0 -0 -0 0 -0 -0 -0 0 -0 -0 0 0 0 0 0 0 0 0 0 -0 0 0 0 0 0 0 0 0 0 0 0 0
0 0 0 0 0 0 0 0 -0 -0 0 0 0 0 -0 0 0 -0 -0 -0 0 -0 -0 -0 -0 -0 -0 -0 0 0 0 0 0 0 0 0 0 0 -0 0 0 0 0 0 0 0 0 0 0
0 0 0 0 0 0 -0 0 0 0 0 0 0 0 0 0 -0 -0 -0 -0 -0 -0 -0 -0 -0 -0 -0 -0 -0 -0 0 0 0 0 0 0 -0 -0 -0 0 0 0 0 0 0 0 0 0 0
0 0 0 0 0 0 0 0 0 -0 0 0 0 0 0 0 -0 -0 -0 -0 -0 -0 -0 -0 -0 -0 -0 -0 -0 -0 -0 -0 -0 0 0 0 0 0 0 -0 0 0 0 0 0 0 0 0 0
0 0 0 0 0 0 0 0 -0 0 0 0 0 0 0 0 -0 -0 -0 -0 -0 -0 -0 -0 -0 -0 -0 -0 -0 -0 -0 -0 -0 -0 0 0 0 0 0 0 0 0 0 0 0 0 0 0 0
0 0 0 0 0 0 0 0 0 0 0 0 0 0 0 0 0 -0 -0 -0 -0 -0 -0 -0 -0 -0 -0 -0 -0 -0 -0 -0 -0 -0 -0 -0 0 0 0 0 0 0 0 0 0 -0 0 0 0
0 0 0 0 0 0 0 0 0 0 0 0 0 0 0 0 0 0 -0 -0 -0 -0 -0 -0 -0 -0 -0 -0 -0 -0 -0 -0 -0 -0 -0 -0 -0 -0 -0 -0 -0 -0 0 -0 -0 -0 -0 0 0
0 0 0 0 0 0 0 -0 0 0 0 0 0 0 0 0 0 0 -0 -0 -0 -0 -0 -0 -0 -0 -0 -0 -0 -0 -0 -0 -0 -0 -0 -0 -0 0 -0 -0 -0 -0 -0 -0 -0 0 -0 0 0
0 0 0 0 0 0 0 0 0 0 0 0 0 0 0 0 0 0 0 -0 -0 -0 -0 -0 -0 -0 -0 -0 -0 -0 -0 -0 -0 -0 -0 -0 -0 -0 -0 -0 -0 0 0 0 -0 -0 0 0 0
0 0 0 0 0 0 0 0 0 0 0 0 0 0 0 0 0 0 0 0 -0 -0 -0 -0 -0 -0 -0 -0 -0 -0 -0 -0 -0 -0 -0 -0 -0 -0 -0 -0 0 0 0 0 -0 -0 0 0 0
0 0 0 0 0 0 0 0 -0 0 0 0 0 0 0 0 0 0 0 0 0 0 0 0 -0 -0 -0 -0 -0 -0 -0 -0 -0 -0 0 0 0 -0 -0 -0 0 0 0 0 0 0 0 0 0
Wind_Speed_500mb
14 9 5 14 14 14 29 3 14 10 12 4 8 14 26 25 19 10 4 12 10 13 21 25 47 46 39 36 44 49 51 52 53 51 49 49 47 44 42 41 40 40 41 41 41 41 41 42 43
8 14 13 20 15 23 8 16 11 6 6 4 11 13 17 20 9 4 8 7 3 14 21 22 49 47 41 38 44 49 54 55 54 51 52 51 49 47 44 41 43 45 44 41 40 39 41 42 41
17 18 31 12 23 21 15 12 6 6 4 9 10 6 13 11 10 2 3 4 7 14 23 28 36 45 38 42 43 49 55 58 56 56 56 53 53 46 46 44 49 48 44 36 36 39 42 40 37
14 17 26 19 31 2 16 5 1 9 9 9 7 14 6 3 1 2 3 2 6 16 26 37 39 42 41 43 46 51 50 50 64 60 59 56 54 47 46 46 49 49 42 33 32 39 43 36 34
21 26 25 27 30 1 6 4 10 13 1 5 11 21 4 4 6 5 4 8 6 21 29 37 35 36 36 49 43 38 32 43 62 62 63 55 55 53 48 47 47 44 38 30 35 40 41 40 38
29 28 26 27 23 15 9 5 12 16 9 10 18 21 18 12 7 10 16 11 18 23 26 32 33 36 52 54 50 24 47 50 58 55 55 56 58 54 42 47 45 43 38 36 41 42 43 41 38
34 26 32 36 25 14 15 8 22 12 17 16 10 19 13 12 12 11 17 21 24 24 29 30 25 36 47 58 46 52 52 44 54 53 58 50 54 53 47 50 45 42 40 44 45 43 44 42 42
40 29 40 30 24 21 23 17 14 21 16 1 12 18 20 11 12 8 10 19 21 26 29 28 27 28 31 27 29 50 47 55 64 60 59 46 44 51 49 51 48 45 45 46 44 44 45 44 45
25 27 31 35 23 22 24 20 20 14 23 20 17 23 13 5 12 12 14 15 18 24 26 31 37 36 31 33 42 48 42 41 54 58 54 42 49 46 50 53 51 49 46 43 45 47 47 46 44
34 26 42 21 16 15 7 16 27 18 30 30 30 29 21 16 18 19 19 18 13 14 19 24 24 47 42 43 45 51 46 49 50 58 47 50 50 55 54 56 59 52 47 46 47 49 47 47 50
42 38 43 19 18 24 19 30 26 24 29 29 25 26 20 20 22 23 20 16 13 13 13 19 24 26 38 46 48 42 48 50 52 57 54 52 52 64 58 61 58 55 52 53 50 52 48 37 39
41 50 42 45 20 23 27 39 41 30 32 28 24 28 23 22 22 22 20 16 15 18 16 18 22 29 26 27 32 39 47 55 58 52 48 42 73 74 71 63 58 65 59 58 56 52 37 37 36
40 41 48 37 37 36 35 39 39 47 40 37 21 21 21 22 21 18 18 18 17 17 18 18 20 26 26 27 30 37 42 48 49 55 55 45 93 89 79 65 59 62 46 48 49 38 39 35 32
36 40 47 53 41 39 37 38 47 55 35 19 21 24 24 24 23 20 20 21 22 18 20 25 29 26 22 22 26 32 42 53 57 57 62 84 82 89 77 79 65 55 49 44 41 38 39 35 31
42 37 39 39 42 40 37 42 46 54 33 27 25 25 28 26 25 25 22 24 22 18 20 26 32 26 27 25 27 29 32 40 47 53 83 92 118 90 83 71 69 55 51 47 44 41 36 32 32
26 36 37 40 46 43 35 40 43 35 23 27 26 28 31 30 29 26 25 26 24 23 21 23 29 28 20 18 20 25 33 40 50 84 108 96 88 87 83 67 60 55 56 50 42 40 37 32 32
34 34 39 41 21 20 27 33 42 22 28 29 27 30 31 31 32 30 29 27 25 20 22 27 32 29 23 24 27 32 37 64 78 89 85 80 89 84 77 69 70 65 65 60 54 43 37 32 29
39 40 38 40 28 26 32 37 37 31 33 34 34 28 34 35 36 34 32 28 23 22 23 27 29 31 25 32 31 33 53 64 66 90 94 91 95 82 77 68 56 51 43 39 33 36 36 32 29
44 47 37 25 6 16 29 34 36 35 43 31 38 33 34 36 33 35 35 32 27 25 24 27 33 33 33 30 31 38 69 75 78 79 80 78 76 83 77 72 57 53 55 46 43 45 44 33 31
49 47 43 34 18 12 33 34 33 34 35 45 37 41 38 36 34 37 38 36 31 27 27 30 32 34 30 33 39 43 74 81 91 93 90 86 79 75 67 67 71 72 65 54 55 47 41 31 33
44 45 43 38 30 15 31 39 41 38 48 41 44 32 31 33 38 43 43 41 34 32 32 33 39 37 35 33 40 53 64 89 92 88 87 74 75 83 72 76 84 72 58 57 51 47 39 33 33
41 39 45 36 30 28 34 29 33 17 28 36 35 37 36 34 36 44 46 45 42 36 35 35 41 43 47 47 49 60 75 99 93 90 92 83 80 83 89 78 84 79 63 54 49 41 40 36 30
42 35 39 34 26 33 42 22 27 38 35 28 28 41 43 37 37 45 50 46 42 38 39 37 45 44 47 56 51 57 70 90 94 90 90 95 92 86 80 78 71 73 72 59 61 45 42 43 35
35 35 26 23 26 30 37 33 29 29 31 32 22 21 25 36 36 41 47 45 43 41 41 40 47 50 51 61 63 59 69 85 90 92 89 93 89 93 91 80 69 70 72 63 65 66 46 44 47
39 26 18 20 23 24 27 27 30 10 2 13 13 19 26 28 34 42 50 53 50 49 46 44 48 52 55 64 71 63 64 83 95 94 95 96 99 96 95 86 80 76 68 67 70 55 51 52 49
33 36 18 28 22 24 35 14 22 25 18 14 11 14 21 24 32 44 52 54 54 53 50 48 51 50 57 61 70 69 68 68 80 103 107 107 113 109 100 94 84 75 71 77 78 66 58 58 50
27 36 38 18 27 11 15 19 9 15 15 15 4 15 28 34 33 42 50 55 55 55 55 53 50 50 55 61 64 70 70 67 71 77 114 107 109 110 106 100 105 103 98 92 89 76 69 73 65
33 23 18 15 11 23 23 27 15 21 21 16 8 2 4 11 20 38 48 55 57 55 53 53 52 53 53 56 62 65 65 70 68 67 94 111 114 110 102 113 111 111 95 92 93 85 76 83 79
33 39 27 28 29 8 6 10 11 14 6 19 15 9 14 7 9 30 42 50 56 56 56 57 56 57 58 58 58 60 66 71 69 68 69 86 88 100 97 97 115 107 101 98 97 99 88 79 75
40 40 41 16 22 23 20 8 9 19 12 22 19 8 2 5 4 12 30 44 55 60 59 60 59 62 65 62 64 67 63 64 71 81 82 86 86 85 93 88 87 99 101 99 94 96 84 76 78
Wind_Direction_500mb
211 209 250 244 246 226 270 231 336 259 219 99 335 297 330 339 317 347 2 349 321 166 226 239 214 208 199 207 212 208 204 201 199 192 184 179 172 168 163 161 156 154 148 146 148 147 150 144 143
196 222 230 267 256 263 270 85 230 291 344 340 275 250 244 264 34 352 357 337 301 172 204 217 222 213 208 215 219 209 206 204 202 194 187 181 176 172 167 164 164 155 153 153 154 157 155 150 150
179 223 265 239 251 275 360 102 291 29 255 228 225 248 324 355 33 359 315 339 263 201 186 218 232 218 219 226 217 207 207 210 206 195 188 183 180 178 172 168 164 158 159 159 161 169 165 162 157
198 226 247 254 268 210 283 49 345 203 143 200 251 273 142 350 46 226 232 300 261 249 194 226 237 230 219 224 224 217 207 209 200 192 188 186 181 184 178 170 168 164 166 160 165 167 165 163 160
232 261 260 238 268 134 248 338 256 244 195 210 216 264 285 152 189 214 241 263 212 270 229 228 235 228 214 243 230 209 211 235 191 190 191 186 185 185 179 179 177 173 176 177 169 160 157 155 151
234 251 260 259 243 150 219 214 243 233 266 215 250 261 284 147 192 231 250 225 245 241 257 241 236 243 243 221 215 233 264 273 207 188 189 184 188 184 182 185 186 188 184 175 164 155 154 155 148
245 257 265 286 287 173 210 189 234 256 283 255 251 266 280 188 189 215 268 268 273 260 251 247 237 231 226 218 227 238 237 228 196 194 190 187 188 189 185 188 187 187 178 164 155 155 154 155 153
243 265 272 268 270 248 169 222 222 246 261 42 258 267 319 93 182 195 257 279 280 264 238 223 217 234 229 224 218 221 239 208 205 196 186 195 194 187 183 182 179 176 166 158 156 157 155 156 155
248 263 257 260 246 271 153 239 200 260 265 236 242 266 300 202 201 213 267 283 280 268 237 217 215 215 218 220 228 224 217 208 210 196 194 206 201 184 181 180 175 171 164 159 155 156 154 151 149
235 238 253 306 322 249 217 235 269 267 261 237 220 231 234 220 230 246 251 269 269 260 236 218 213 216 214 218 219 211 207 201 192 192 190 187 191 182 187 186 175 172 168 160 154 150 148 147 146
229 247 271 283 253 275 238 256 244 247 260 278 332 320 261 229 237 246 251 252 239 237 229 229 216 208 222 231 224 215 220 203 206 214 222 231 218 186 192 181 178 174 169 160 153 149 143 152 151
241 253 260 274 260 251 257 267 272 259 274 294 280 294 274 232 234 246 247 234 235 219 239 218 224 207 218 231 233 231 234 228 219 225 231 248 234 190 186 182 171 167 166 160 159 143 152 153 162
238 248 262 252 260 251 259 266 268 271 274 274 261 264 244 231 236 239 239 224 218 220 233 243 226 230 235 248 241 235 235 227 233 235 233 222 179 176 182 172 174 163 167 163 153 150 159 158 161
252 246 257 262 252 248 253 258 263 257 259 253 250 246 234 226 229 225 221 217 207 211 223 237 239 232 240 236 244 245 240 235 239 242 225 196 186 182 177 167 175 161 168 167 158 165 159 161 161
256 263 258 254 252 253 247 257 252 254 254 245 233 235 232 226 222 218 216 215 215 216 221 227 243 228 236 239 241 237 245 237 240 220 196 199 178 173 163 172 169 167 166 166 169 164 154 159 159
252 243 256 255 236 240 228 259 268 221 196 222 228 230 225 222 221 217 212 208 209 208 213 232 220 224 228 219 224 228 227 222 196 165 159 158 162 170 163 170 171 169 175 169 172 158 159 168 165
240 246 236 250 193 230 220 246 238 172 208 231 237 229 221 220 221 214 211 207 207 210 212 209 206 218 201 201 201 202 196 187 157 156 151 158 165 168 163 174 183 180 177 170 173 159 167 172 171
237 231 235 260 224 211 221 239 271 201 212 236 248 228 226 219 221 215 209 205 202 208 203 200 215 211 195 201 193 183 176 170 169 168 169 180 176 167 176 187 185 174 167 168 177 175 164 179 179
252 261 250 249 211 216 246 252 251 249 256 230 243 243 227 228 222 213 208 205 199 200 196 196 214 198 200 191 189 190 169 173 169 167 162 160 165 179 188 186 179 169 172 173 195 187 176 174 186
243 252 259 263 256 212 262 260 257 253 253 254 252 252 221 225 216 204 205 201 200 201 195 187 197 202 196 188 188 194 180 172 164 163 166 170 181 177 173 182 181 182 184 188 195 185 179 181 187
237 240 248 253 274 208 259 267 261 251 253 251 251 250 257 219 215 201 203 201 201 200 197 187 196 191 183 181 187 191 187 172 175 181 179 168 180 188 193 194 191 191 195 193 187 189 183 185 193
239 231 248 260 263 257 248 273 262 275 219 226 233 236 232 233 214 204 203 202 201 200 196 193 191 191 183 178 185 188 185 181 182 181 179 184 188 192 196 199 193 196 192 197 191 200 207 200 209
244 251 259 253 248 257 252 253 264 261 239 230 236 235 227 216 215 205 202 201 199 196 193 193 191 192 191 185 189 188 183 183 183 186 188 190 193 195 201 203 197 198 202 202 204 205 221 223 206
242 243 250 245 244 244 241 244 251 252 212 222 225 225 218 200 208 205 200 196 195 195 196 193 189 196 198 188 189 193 194 183 193 196 197 199 199 196 199 202 201 204 203 214 215 211 229 230 228
227 208 213 213 223 237 235 223 235 210 136 252 245 233 222 200 208 203 196 194 192 194 197 194 193 192 199 194 194 188 201 202 196 198 196 195 194 198 203 205 209 210 214 217 216 226 231 233 234
214 219 220 219 221 232 213 227 233 237 243 201 222 246 205 201 212 209 202 198 195 194 197 195 196 197 201 206 200 200 200 205 208 204 200 200 199 202 204 204 208 209 217 216 222 234 234 236 243
229 228 237 316 273 261 202 218 129 174 221 219 266 246 234 227 211 211 203 201 200 197 198 199 198 198 201 203 203 205 200 204 207 208 209 205 207 207 210 216 222 227 227 231 227 230 234 237 245
237 233 247 240 248 237 250 256 218 172 216 198 219 101 58 266 220 205 204 202 203 201 201 202 201 203 205 206 205 203 206 209 208 209 209 215 216 220 220 223 224 230 234 229 225 232 239 240 246
213 229 231 223 238 239 240 255 357 141 158 273 102 101 67 55 216 208 209 205 205 203 200 201 203 201 206 206 208 207 209 208 208 210 215 213 214 219 216 220 229 229 229 227 232 235 238 242 247
228 217 215 235 241 248 247 271 248 78 24 358 353 341 31 71 38 209 212 208 206 205 204 205 205 204 205 208 208 210 211 213 216 212 214 215 217 221 219 218 231 227 226 230 231 233 236 236 241
Wind_Speed_850mb
14 9 5 14 14 14 29 3 14 10 12 4 8 14 26 25 19 10 4 12 10 13 21 25 47 46 39 36 44 49 51 52 53 51 49 49 47 44 42 41 40 40 41 41 41 41 41 42 43
8 14 13 20 15 23 8 16 11 6 6 4 11 13 17 20 9 4 8 7 3 14 21 22 49 47 41 38 44 49 54 55 54 51 52 51 49 47 44 41 43 45 44 41 40 39 41 42 41
17 18 31 12 23 21 15 12 6 6 4 9 10 6 13 11 10 2 3 4 7 14 23 28 36 45 38 42 43 49 55 58 56 56 56 53 53 46 46 44 49 48 44 36 36 39 42 40 37
14 17 26 19 31 2 16 5 1 9 9 9 7 14 6 3 1 2 3 2 6 16 26 37 39 42 41 43 46 51 50 50 64 60 59 56 54 47 46 46 49 49 42 33 32 39 43 36 34
21 26 25 27 30 1 6 4 10 13 1 5 11 21 4 4 6 5 4 8 6 21 29 37 35 36 36 49 43 38 32 43 62 62 63 55 55 53 48 47 47 44 38 30 35 40 41 40 38
29 28 26 27 23 15 9 5 12 16 9 10 18 21 18 12 7 10 16 11 18 23 26 32 33 36 52 54 50 24 47 50 58 55 55 56 58 54 42 47 45 43 38 36 41 42 43 41 38
34 26 32 36 25 14 15 8 22 12 17 16 10 19 13 12 12 11 17 21 24 24 29 30 25 36 47 58 46 52 52 44 54 53 58 50 54 53 47 50 45 42 40 44 45 43 44 42 42
40 29 40 30 24 21 23 17 14 21 16 1 12 18 20 11 12 8 10 19 21 26 29 28 27 28 31 27 29 50 47 55 64 60 59 46 44 51 49 51 48 45 45 46 44 44 45 44 45
25 27 31 35 23 22 24 20 20 14 23 20 17 23 13 5 12 12 14 15 18 24 26 31 37 36 31 33 42 48 42 41 54 58 54 42 49 46 50 53 51 49 46 43 45 47 47 46 44
34 26 42 21 16 15 7 16 27 18 30 30 30 29 21 16 18 19 19 18 13 14 19 24 24 47 42 43 45 51 46 49 50 58 47 50 50 55 54 56 59 52 47 46 47 49 47 47 50
42 38 43 19 18 24 19 30 26 24 29 29 25 26 20 20 22 23 20 16 13 13 13 19 24 26 38 46 48 42 48 50 52 57 54 52 52 64 58 61 58 55 52 53 50 52 48 37 39
41 50 42 45 20 23 27 39 41 30 32 28 24 28 23 22 22 22 20 16 15 18 16 18 22 29 26 27 32 39 47 55 58 52 48 42 73 74 71 63 58 65 59 58 56 52 37 37 36
40 41 48 37 37 36 35 39 39 47 40 37 21 21 21 22 21 18 18 18 17 17 18 18 20 26 26 27 30 37 42 48 49 55 55 45 93 89 79 65 59 62 46 48 49 38 39 35 32
36 40 47 53 41 39 37 38 47 55 35 19 21 24 24 24 23 20 20 21 22 18 20 25 29 26 22 22 26 32 42 53 57 57 62 84 82 89 77 79 65 55 49 44 41 38 39 35 31
42 37 39 39 42 40 37 42 46 54 33 27 25 25 28 26 25 25 22 24 22 18 20 26 32 26 27 25 27 29 32 40 47 53 83 92 118 90 83 71 69 55 51 47 44 41 36 32 32
26 36 37 40 46 43 35 40 43 35 23 27 26 28 31 30 29 26 25 26 24 23 21 23 29 28 20 18 20 25 33 40 50 84 108 96 88 87 83 67 60 55 56 50 42 40 37 32 32
34 34 39 41 21 20 27 33 42 22 28 29 27 30 31 31 32 30 29 27 25 20 22 27 32 29 23 24 27 32 37 64 78 89 85 80 89 84 77 69 70 65 65 60 54 43 37 32 29
39 40 38 40 28 26 32 37 37 31 33 34 34 28 34 35 36 34 32 28 23 22 23 27 29 31 25 32 31 33 53 64 66 90 94 91 95 82 77 68 56 51 43 39 33 36 36 32 29
44 47 37 25 6 16 29 34 36 35 43 31 38 33 34 36 33 35 35 32 27 25 24 27 33 33 33 30 31 38 69 75 78 79 80 78 76 83 77 72 57 53 55 46 43 45 44 33 31
49 47 43 34 18 12 33 34 33 34 35 45 37 41 38 36 34 37 38 36 31 27 27 30 32 34 30 33 39 43 74 81 91 93 90 86 79 75 67 67 71 72 65 54 55 47 41 31 33
44 45 43 38 30 15 31 39 41 38 48 41 44 32 31 33 38 43 43 41 34 32 32 33 39 37 35 33 40 53 64 89 92 88 87 74 75 83 72 76 84 72 58 57 51 47 39 33 33
41 39 45 36 30 28 34 29 33 17 28 36 35 37 36 34 36 44 46 45 42 36 35 35 41 43 47 47 49 60 75 99 93 90 92 83 80 83 89 78 84 79 63 54 49 41 40 36 30
42 35 39 34 26 33 42 22 27 38 35 28 28 41 43 37 37 45 50 46 42 38 39 37 45 44 47 56 51 57 70 90 94 90 90 95 92 86 80 78 71 73 72 59 61 45 42 43 35
35 35 26 23 26 30 37 33 29 29 31 32 22 21 25 36 36 41 47 45 43 41 41 40 47 50 51 61 63 59 69 85 90 92 89 93 89 93 91 80 69 70 72 63 65 66 46 44 47
39 26 18 20 23 24 27 27 30 10 2 13 13 19 26 28 34 42 50 53 50 49 46 44 48 52 55 64 71 63 64 83 95 94 95 96 99 96 95 86 80 76 68 67 70 55 51 52 49
33 36 18 28 22 24 35 14 22 25 18 14 11 14 21 24 32 44 52 54 54 53 50 48 51 50 57 61 70 69 68 68 80 103 107 107 113 109 100 94 84 75 71 77 78 66 58 58 50
27 36 38 18 27 11 15 19 9 15 15 15 4 15 28 34 33 42 50 55 55 55 55 53 50 50 55 61 64 70 70 67 71 77 114 107 109 110 106 100 105 103 98 92 89 76 69 73 65
33 23 18 15 11 23 23 27 15 21 21 16 8 2 4 11 20 38 48 55 57 55 53 53 52 53 53 56 62 65 65 70 68 67 94 111 114 110 102 113 111 111 95 92 93 85 76 83 79
33 39 27 28 29 8 6 10 11 14 6 19 15 9 14 7 9 30 42 50 56 56 56 57 56 57 58 58 58 60 66 71 69 68 69 86 88 100 97 97 115 107 101 98 97 99 88 79 75
40 40 41 16 22 23 20 8 9 19 12 22 19 8 2 5 4 12 30 44 55 60 59 60 59 62 65 62 64 67 63 64 71 81 82 86 86 85 93 88 87 99 101 99 94 96 84 76 78
Wind_Direction_850mb
211 209 250 244 246 226 270 231 336 259 219 99 335 297 330 339 317 347 2 349 321 166 226 239 214 208 199 207 212 208 204 201 199 192 184 179 172 168 163 161 156 154 148 146 148 147 150 144 143
196 222 230 267 256 263 270 85 230 291 344 340 275 250 244 264 34 352 357 337 301 172 204 217 222 213 208 215 219 209 206 204 202 194 187 181 176 172 167 164 164 155 153 153 154 157 155 150 150
179 223 265 239 251 275 360 102 291 29 255 228 225 248 324 355 33 359 315 339 263 201 186 218 232 218 219 226 217 207 207 210 206 195 188 183 180 178 172 168 164 158 159 159 161 169 165 162 157
198 226 247 254 268 210 283 49 345 203 143 200 251 273 142 350 46 226 232 300 261 249 194 226 237 230 219 224 224 217 207 209 200 192 188 186 181 184 178 170 168 164 166 160 165 167 165 163 160
232 261 260 238 268 134 248 338 256 244 195 210 216 264 285 152 189 214 241 263 212 270 229 228 235 228 214 243 230 209 211 235 191 190 191 186 185 185 179 179 177 173 176 177 169 160 157 155 151
234 251 260 259 243 150 219 214 243 233 266 215 250 261 284 147 192 231 250 225 245 241 257 241 236 243 243 221 215 233 264 273 207 188 189 184 188 184 182 185 186 188 184 175 164 155 154 155 148
245 257 265 286 287 173 210 189 234 256 283 255 251 266 280 188 189 215 268 268 273 260 251 247 237 231 226 218 227 238 237 228 196 194 190 187 188 189 185 188 187 187 178 164 155 155 154 155 153
243 265 272 268 270 248 169 222 222 246 261 42 258 267 319 93 182 195 257 279 280 264 238 223 217 234 229 224 218 221 239 208 205 196 186 195 194 187 183 182 179 176 166 158 156 157 155 156 155
248 263 257 260 246 271 153 239 200 260 265 236 242 266 300 202 201 213 267 283 280 268 237 217 215 215 218 220 228 224 217 208 210 196 194 206 201 184 181 180 175 171 164 159 155 156 154 151 149
235 238 253 306 322 249 217 235 269 267 261 237 220 231 234 220 230 246 251 269 269 260 236 218 213 216 214 218 219 211 207 201 192 192 190 187 191 182 187 186 175 172 168 160 154 150 148 147 146
229 247 271 283 253 275 238 256 244 247 260 278 332 320 261 229 237 246 251 252 239 237 229 229 216 208 222 231 224 215 220 203 206 214 222 231 218 186 192 181 178 174 169 160 153 149 143 152 151
241 253 260 274 260 251 257 267 272 259 274 294 280 294 274 232 234 246 247 234 235 219 239 218 224 207 218 231 233 231 234 228 219 225 231 248 234 190 186 182 171 167 166 160 159 143 152 153 162
238 248 262 252 260 251 259 266 268 271 274 274 261 264 244 231 236 239 239 224 218 220 233 243 226 230 235 248 241 235 235 227 233 235 233 222 179 176 182 172 174 163 167 163 153 150 159 158 161
252 246 257 262 252 248 253 258 263 257 259 253 250 246 234 226 229 225 221 217 207 211 223 237 239 232 240 236 244 245 240 235 239 242 225 196 186 182 177 167 175 161 168 167 158 165 159 161 161
256 263 258 254 252 253 247 257 252 254 254 245 233 235 232 226 222 218 216 215 215 216 221 227 243 228 236 239 241 237 245 237 240 220 196 199 178 173 163 172 169 167 166 166 169 164 154 159 159
252 243 256 255 236 240 228 259 268 221 196 222 228 230 225 222 221 217 212 208 209 208 213 232 220 224 228 219 224 228 227 222 196 165 159 158 162 170 163 170 171 169 175 169 172 158 159 168 165
240 246 236 250 193 230 220 246 238 172 208 231 237 229 221 220 221 214 211 207 207 210 212 209 206 218 201 201 201 202 196 187 157 156 151 158 165 168 163 174 183 180 177 170 173 159 167 172 171
237 231 235 260 224 211 221 239 271 201 212 236 248 228 226 219 221 215 209 205 202 208 203 200 215 211 195 201 193 183 176 170 169 168 169 180 176 167 176 187 185 174 167 168 177 175 164 179 179
252 261 250 249 211 216 246 252 251 249 256 230 243 243 227 228 222 213 208 205 199 200 196 196 214 198 200 191 189 190 169 173 169 167 162 160 165 179 188 186 179 169 172 173 195 187 176 174 186
243 252 259 263 256 212 262 260 257 253 253 254 252 252 221 225 216 204 205 201 200 201 195 187 197 202 196 188 188 194 180 172 164 163 166 170 181 177 173 182 181 182 184 188 195 185 179 181 187
237 240 248 253 274 208 259 267 261 251 253 251 251 250 257 219 215 201 203 201 201 200 197 187 196 191 183 181 187 191 187 172 175 181 179 168 180 188 193 194 191 191 195 193 187 189 183 185 193
239 231 248 260 263 257 248 273 262 275 219 226 233 236 232 233 214 204 203 202 201 200 196 193 191 191 183 178 185 188 185 181 182 181 179 184 188 192 196 199 193 196 192 197 191 200 207 200 209
244 251 259 253 248 257 252 253 264 261 239 230 236 235 227 216 215 205 202 201 199 196 193 193 191 192 191 185 189 188 183 183 183 186 188 190 193 195 201 203 197 198 202 202 204 205 221 223 206
242 243 250 245 244 244 241 244 251 252 212 222 225 225 218 200 208 205 200 196 195 195 196 193 189 196 198 188 189 193 194 183 193 196 197 199 199 196 199 202 201 204 203 214 215 211 229 230 228
227 208 213 213 223 237 235 223 235 210 136 252 245 233 222 200 208 203 196 194 192 194 197 194 193 192 199 194 194 188 201 202 196 198 196 195 194 198 203 205 209 210 214 217 216 226 231 233 234
214 219 220 219 221 232 213 227 233 237 243 201 222 246 205 201 212 209 202 198 195 194 197 195 196 197 201 206 200 200 200 205 208 204 200 200 199 202 204 204 208 209 217 216 222 234 234 236 243
229 228 237 316 273 261 202 218 129 174 221 219 266 246 234 227 211 211 203 201 200 197 198 199 198 198 201 203 203 205 200 204 207 208 209 205 207 207 210 216 222 227 227 231 227 230 234 237 245
237 233 247 240 248 237 250 256 218 172 216 198 219 101 58 266 220 205 204 202 203 201 201 202 201 203 205 206 205 203 206 209 208 209 209 215 216 220 220 223 224 230 234 229 225 232 239 240 246
213 229 231 223 238 239 240 255 357 141 158 273 102 101 67 55 216 208 209 205 205 203 200 201 203 201 206 206 208 207 209 208 208 210 215 213 214 219 216 220 229 229 229 227 232 235 238 242 247
228 217 215 235 241 248 247 271 248 78 24 358 353 341 31 71 38 209 212 208 206 205 204 205 205 204 205 208 208 210 211 213 216 212 214 215 217 221 219 218 231 227 226 230 231 233 236 236 241